Vorticity
nan nan nan nan nan nan nan nan nan nan nan nan nan nan nan nan nan nan nan nan nan nan nan nan nan nan nan nan nan nan nan nan nan nan nan nan nan nan nan nan nan nan nan
nan 11 9 7 7 5 4 4 4 5 5 5 4 4 5 6 5 4 4 4 7 8 6 5 5 5 4 4 5 5 5 3 3 2 4 4 4 5 9 8 7 10 nan
nan 7 8 8 6 6 4 4 4 4 5 4 5 5 4 6 5 4 3 6 8 6 4 5 5 5 5 4 4 2 3 4 3 3 3 5 5 5 4 7 7 7 nan
nan 5 8 9 6 8 6 5 5 4 4 5 6 5 5 5 5 3 5 7 6 4 5 5 5 4 4 4 4 4 3 3 2 3 4 7 6 5 4 4 4 5 nan
nan 6 8 9 6 8 8 6 5 4 4 3 6 7 5 6 6 5 6 5 6 6 5 5 5 5 4 4 5 10 9 4 3 3 5 7 8 6 4 5 5 5 nan
nan 8 10 8 5 5 7 8 5 5 4 4 5 6 5 5 6 7 5 5 6 6 5 5 5 4 4 5 7 9 8 4 2 4 6 6 7 7 5 5 6 5 nan
nan 9 11 8 5 5 5 6 7 6 5 5 6 6 5 7 7 6 6 5 5 6 5 5 5 4 4 4 9 8 3 3 3 6 6 5 9 7 5 5 5 5 nan
nan 8 10 9 6 6 5 5 6 7 6 6 6 6 6 7 7 5 4 5 5 5 5 5 5 4 3 4 7 8 3 3 5 5 5 6 8 5 5 5 5 5 nan
nan 7 7 9 9 7 5 6 6 8 8 7 6 7 7 6 6 5 4 6 5 5 5 5 5 4 4 3 4 6 5 4 4 5 5 6 7 5 4 4 4 5 nan
nan 7 6 5 8 8 9 8 7 7 9 9 7 6 6 8 8 4 3 5 6 5 5 5 5 4 4 3 3 6 8 3 4 5 6 7 7 4 4 4 4 4 nan
nan 7 7 5 5 8 9 9 9 8 8 8 7 7 4 7 8 5 5 7 7 6 5 6 4 4 5 5 5 5 4 5 6 5 8 8 6 4 4 4 4 4 nan
nan 11 6 7 5 6 6 8 8 8 7 8 9 7 7 8 8 8 8 9 7 5 5 5 4 4 4 4 6 5 5 7 7 6 8 9 5 4 4 4 4 4 nan
nan 9 11 6 6 7 5 4 6 8 9 10 10 7 7 6 7 8 7 7 8 5 5 7 6 6 6 5 6 6 7 6 7 8 9 9 6 4 4 4 3 3 nan
nan 6 7 10 12 4 6 8 7 6 7 8 9 8 7 8 7 8 7 7 7 6 7 5 7 7 6 6 6 6 6 6 6 8 10 10 8 6 5 4 4 4 nan
nan 9 7 6 10 12 7 6 7 8 7 7 9 8 7 8 8 7 6 6 7 8 8 7 7 7 7 7 7 7 6 7 6 6 10 12 8 7 7 6 5 5 nan
nan 12 8 5 5 8 10 9 8 6 8 6 5 9 9 7 8 7 7 6 7 7 7 8 7 7 7 8 7 8 8 8 9 6 6 11 12 9 8 6 5 6 nan
nan 12 9 5 5 5 5 8 9 9 9 8 8 5 6 9 8 6 6 7 6 7 6 6 7 7 8 8 9 8 9 8 8 7 7 8 11 11 11 9 7 7 nan
nan 10 9 9 6 5 4 5 6 8 8 10 9 8 5 5 7 9 7 7 9 8 6 7 7 8 8 8 9 8 8 9 8 8 8 8 7 10 13 11 8 8 nan
nan 8 10 11 9 6 5 7 7 6 6 7 8 10 10 6 3 4 7 9 8 7 8 7 6 8 8 8 8 8 8 8 8 9 8 8 8 8 10 13 11 8 nan
nan 11 9 9 9 9 7 7 7 6 6 7 8 9 8 8 7 3 5 6 6 5 6 7 8 7 7 9 9 8 8 7 8 9 9 9 10 8 9 9 10 12 nan
nan 11 11 8 7 6 8 8 8 9 7 7 10 10 8 7 6 6 4 7 7 8 7 5 7 8 8 8 8 9 11 10 8 7 9 8 9 11 10 9 8 8 nan
nan 10 9 7 8 5 5 6 8 11 9 9 8 11 12 11 10 7 6 7 4 7 10 10 6 6 11 8 5 8 8 9 13 11 8 9 9 11 11 9 8 7 nan
nan 11 9 9 9 8 6 6 6 6 9 11 10 11 11 12 9 8 7 5 9 7 9 9 8 6 8 8 9 5 9 9 7 10 11 11 10 7 7 9 8 8 nan
nan 8 9 10 8 9 8 8 8 6 10 11 12 13 14 14 10 9 8 6 8 8 10 10 8 8 8 7 7 7 8 13 7 6 9 8 10 11 9 9 9 9 nan
nan 11 8 5 6 10 10 8 8 7 8 12 15 12 8 14 16 12 12 11 9 7 9 10 9 7 6 9 8 8 8 8 10 9 6 7 11 11 10 9 9 9 nan
nan nan nan nan nan nan nan nan nan nan nan nan nan nan nan nan nan nan nan nan nan nan nan nan nan nan nan nan nan nan nan nan nan nan nan nan nan nan nan nan nan nan nan
CAPE
337 1048 2073 2173 2131 2274 1981 1643 1715 1731 1702 1566 1174 1092 911 576 157 184 210 239 401 681 435 50 48 29 169 294 275 57 69 92 191 294 429 154 53 268 407 303 324 0 3
515 1147 1889 2186 2304 2338 2254 2077 1920 1722 1626 1611 1231 900 599 195 91 492 269 828 874 782 364 17 78 20 36 45 24 6 11 8 16 61 80 212 322 471 417 255 480 16 3
868 1206 1414 1973 2243 2343 2357 2229 2009 1856 1733 1629 1519 1088 595 170 67 638 711 913 813 720 276 13 44 18 9 6 4 2 0 0 0 0 0 0 77 73 277 297 203 302 324
1004 1135 1144 1831 2140 2311 2274 2161 1918 1912 1642 1467 1496 1669 912 328 133 529 1013 910 804 308 41 5 7 8 5 1 0 0 0 0 0 0 0 0 2 19 14 20 110 120 59
982 1066 1088 1704 1944 2167 2231 2169 1907 1725 1592 1285 1568 1492 1325 870 714 868 926 909 910 430 10 1 0 0 0 0 0 0 0 0 0 0 0 0 0 7 5 7 3 5 7
890 944 1301 1603 1727 1775 2066 1879 1799 1636 1456 1381 1576 1528 1299 1562 1188 1113 985 923 730 284 0 0 0 0 0 0 0 0 0 0 0 0 0 0 0 1 0 0 0 2 3
730 893 1335 1699 1730 1638 1640 1915 1900 1866 1605 1457 1371 1547 1261 1240 1117 983 1038 888 676 152 0 0 0 0 0 0 0 0 0 0 0 0 0 0 0 0 0 0 0 0 0
759 1062 1294 1576 1638 1615 1479 1468 1881 1882 1738 1579 1443 1189 1176 1170 1125 1114 1158 976 517 51 0 0 0 0 0 0 0 0 0 0 0 0 0 0 0 0 0 0 0 0 0
887 1183 1170 1240 1324 1355 1303 1174 1296 1774 1653 1462 1339 1218 981 775 890 655 581 965 556 90 0 0 0 0 0 0 0 0 0 0 0 0 0 0 0 0 0 0 0 0 0
925 1170 1153 1052 1085 1114 1041 1067 988 1224 1419 1285 1155 887 654 509 528 441 221 460 667 383 160 38 0 0 0 0 0 0 0 0 0 0 0 0 0 0 0 0 0 0 0
35 582 980 847 631 632 736 881 999 976 1169 991 859 583 319 191 204 55 0 26 341 407 376 96 38 52 22 0 0 0 0 0 0 0 0 0 0 0 0 0 0 0 0
8 80 475 509 298 387 664 458 531 725 639 480 403 100 119 52 122 0 0 21 359 368 354 331 225 138 4 0 0 0 0 0 0 0 0 0 0 0 0 0 0 0 0
0 1 19 80 44 352 186 61 101 127 213 142 130 65 16 5 0 0 0 0 33 23 19 42 15 0 0 0 0 0 0 0 0 0 0 0 0 0 0 0 0 0 0
0 0 0 1 25 6 20 30 214 381 225 21 21 0 0 0 0 0 0 0 0 0 1 3 0 0 0 0 0 0 0 0 0 0 0 0 7 1 0 30 85 99 84
0 1 0 0 0 10 18 12 125 187 276 37 0 0 0 0 0 0 0 0 5 0 0 0 0 0 0 0 0 0 0 0 0 0 0 0 0 101 100 22 95 128 94
0 0 0 1 0 0 0 2 39 99 93 67 13 1 0 0 0 0 0 0 0 0 0 0 0 0 0 0 0 0 0 0 0 0 0 0 0 1 111 74 67 96 69
0 0 0 0 0 0 0 0 0 32 102 101 37 0 0 0 0 0 0 0 0 0 0 0 0 0 0 0 0 0 0 0 0 0 0 0 0 0 2 59 160 123 130
0 0 0 0 0 0 0 0 0 0 19 106 79 22 0 7 2 0 0 1 33 3 0 0 0 0 0 0 0 0 0 0 0 0 0 0 0 0 0 3 142 211 156
0 0 0 0 0 0 0 0 0 0 0 1 78 96 48 3 5 2 3 0 10 3 0 0 0 0 0 0 0 0 0 0 0 0 0 0 0 0 0 0 0 16 0
0 0 0 0 0 0 0 0 0 0 0 0 0 66 68 44 31 5 4 17 22 44 0 0 0 0 0 0 0 0 0 0 0 0 0 0 0 0 0 0 0 0 0
0 0 29 15 0 0 1 2 3 1 2 1 0 3 41 81 31 24 0 3 18 20 0 2 0 0 0 0 0 0 0 0 0 0 0 0 0 0 0 0 0 0 0
0 42 96 109 119 44 35 3 0 1 1 17 11 8 2 27 29 12 2 0 1 5 21 5 0 0 0 0 0 0 8 0 0 0 0 0 0 0 0 0 0 0 0
47 86 139 175 167 193 150 112 67 47 9 15 31 38 14 15 23 20 16 14 0 0 25 4 14 28 19 15 19 23 10 6 0 0 0 0 0 0 0 0 0 0 0
29 13 85 166 172 149 141 164 83 72 61 40 40 37 34 3 1 9 0 24 26 46 88 69 47 69 73 83 29 21 8 1 1 0 0 0 0 0 0 0 0 0 0
31 32 28 3 18 104 85 70 122 83 23 35 5 2 1 1 22 20 22 39 48 33 101 69 30 78 58 21 9 10 1 0 0 0 0 0 0 0 0 0 0 0 0
34 30 0 12 0 10 37 26 57 24 1 25 1 5 2 7 14 18 39 61 56 61 48 33 33 40 29 22 8 0 1 1 0 0 0 0 0 0 0 0 0 0 0